Weather in Yuzhno-Podolsk

Russia / Omsk Oblast     54°24′52″N   75°03′23″E
temp.,
°C
wind,
m/s
gust,
m/s
humid.,
%
clouds,
%
prec.,
mm/h
press.,
hPa
HPBL,
m
17 april, sat
sat1700:00+4n510855 0.1 1022446
03:00+2nne698043 0.0 1024733
06:00−1nne478921 0.0 1026399
09:00+1nne447048 0.0 1027723
12:00+3n33535 0.0 10271020
15:00+5nw22465 0.0 10261185
18:00+6wsw23415 0.0 10241370
21:00+4wsw335531 0.0 102334
18 april, sun
sun1800:00+2sw356273 0.0 102171
03:00+2ssw496794 0.0 1018161
06:00+1ssw41076100 0.0 1015184
09:00+5wsw51169100 0.0 1012413
12:00+10wsw91455100 0.1 10092050
15:00+10wnw101555100 0.6 10082175
18:00+2nw11165962 1.0 10121398
21:00−4nnw10156574 0.0 10181322
19 april, mon
mon1900:00−4nnw9125964 0.0 10211195
03:00−6nnw810545 0.0 10251021
06:00−8nnw710485 0.0 1028958
09:00−6nnw684381 0.0 10301285
12:00−4nnw673593 0.0 10311669
15:00−2nnw6732100 0.0 10312136
18:00−2n6734100 0.0 10311972
21:00−4n36445 0.0 1033435
20 april, tue
tue2000:00−4n46485 0.0 1033842
03:00−5n35510 0.0 1033982
06:00−5nnw24560 0.0 1034283
09:00−3nw34425 0.0 10341125
12:000wnw45335 0.0 10321497
15:00+2w67305 0.0 10291727
18:00+3w6103774 0.0 10271780
21:00+1wsw6135284 0.0 1026318
21 april, wed
wed2100:00+1w71556100 0.0 1023507
03:00+1w81561100 0.0 1020541
06:00+1wnw81481100 0.1 1019649
09:00+2nw7139088 0.8 1020865
12:00+4nnw91163100 0.9 10211567
15:00+3nnw91262100 0.1 10231689
18:00+3nnw8136498 0.3 10251497
21:00+1n8137358 0.1 1029979